User: anonymous
Location: Caltech
(34.1382°N, 118.1253°W)
Time: 15:24:42
(UTC-07:00)
Language:

DELTA 2 R/B (1) - Orbit

View from above orbital plane
View from above orbital plane
View from above satellite
View from above satellite

Ground track
Ground track

The orbit data is extracted from the following two-line orbital elements,

1 27665U 03005C   14265.11028701 -.00000057  00000-0  10994-4 0  1220
2 27665 039.5746 156.7768 0010213 252.1108 254.5244 14.28220521608049
Epoch (UTC): 22 September 2014 02:38:48
Eccentricity: 0.0010213
inclination: 39.5746°
perigee height: 790 km
apogee height: 805 km
right ascension of ascending node: 156.7768°
argument of perigee: 252.1108°
revolutions per day: 14.28220521
mean anomaly at epoch: 254.5244°
orbit number at epoch: 60804

The dashed part of the orbit path shows where the satellite is in the earth's shadow,  

DLR